Change the Weather History Date:

Wednesday, August 7, 2013

  Actual Average Record
Temperature  
Mean Temperature 66 °F -  
Max Temperature 84 °F 80 °F 96 °F (1981)
Min Temperature 51 °F 53 °F 44 °F (1951)
Cooling Degree Days 1    
Growing Degree Days 16 (Base 50)    
Moisture  
Dew Point 54 °F    
Average Humidity 84    
Maximum Humidity 100    
Minimum Humidity 42    
Precipitation  
Precipitation 0.00 in - - ()
Sea Level Pressure  
Sea Level Pressure 29.99 in    
Wind  
Wind Speed 9 mph (WSW)    
Max Wind Speed 17 mph    
Max Gust Speed 23 mph    
Visibility 6 miles    
Events      
Averages and records for this station are not official NWS values.
T = Trace of Precipitation, MM = Missing Value Source: NWS Daily Summary

Daily Weather History Graph

Daily Weather History Graph

Search for Another Location

Airport or City:

Trip Planner

Search our weather history database for the weather conditions in past years. The results will help you decide how hot, cold, wet, or windy it might be!

Date:

Astronomy

Aug. 07, 2013 Rise Set
Actual Time 5:59 AM PDT 8:36 PM PDT
Civil Twilight 5:24 AM PDT 9:10 PM PDT
Nautical Twilight 4:40 AM PDT 9:54 PM PDT
Astronomical Twilight 3:49 AM PDT 10:45 PM PDT
Moon 7:01 AM PDT 8:36 PM PDT
Length of Visible Light 15h 46m
Length of Day
14h 37m
New Moon, 1% of the Moon is Illuminated
Aug 7
New Moon
Aug 14
First Quarter
Aug 20
Full
Aug 28
Last Quarter
Sep 5
New

Hourly Weather History & Observations

Time (PDT) Temp. Heat Index Dew Point Humidity Pressure Visibility Wind Dir Wind Speed Gust Speed Precip Events Conditions
12:53 AM 55.0 °F - 53.1 °F 93% 29.96 in 10.0 mi WSW 8.1 mph - N/A   Overcast
1:04 AM 53.6 °F - 53.6 °F 100% 29.97 in 6.0 mi WSW 9.2 mph - N/A   Overcast
1:36 AM 53.6 °F - 53.6 °F 100% 29.97 in 2.5 mi WSW 8.1 mph - N/A   Overcast
1:53 AM 54.0 °F - 53.1 °F 97% 29.97 in 2.5 mi WSW 8.1 mph - N/A   Overcast
2:14 AM 53.6 °F - 53.6 °F 100% 29.97 in 1.2 mi WSW 8.1 mph - N/A   Overcast
2:53 AM 53.1 °F - 53.1 °F 100% 29.97 in 1.0 mi WSW 9.2 mph - N/A   Mist
3:53 AM 53.1 °F - 53.1 °F 100% 29.97 in 1.2 mi West 5.8 mph - N/A   Overcast
4:53 AM 53.1 °F - 53.1 °F 100% 29.97 in 1.2 mi WSW 4.6 mph - N/A   Overcast
5:53 AM 52.0 °F - 52.0 °F 100% 29.97 in 1.0 mi West 5.8 mph - N/A   Mist
6:12 AM 51.8 °F - 51.8 °F 100% 29.98 in 0.8 mi WSW 4.6 mph - N/A   Mist
6:42 AM 51.8 °F - 51.8 °F 100% 29.98 in 1.0 mi SW 8.1 mph - N/A   Overcast
6:53 AM 52.0 °F - 52.0 °F 100% 29.98 in 0.8 mi WSW 8.1 mph - N/A   Overcast
7:26 AM 53.6 °F - 51.8 °F 94% 30.00 in 1.0 mi WSW 3.5 mph - N/A   Overcast
7:45 AM 53.6 °F - 53.6 °F 100% 30.01 in 2.0 mi West 5.8 mph - N/A   Overcast
7:53 AM 53.1 °F - 53.1 °F 100% 30.01 in 1.8 mi WSW 5.8 mph - N/A   Overcast
8:01 AM 53.6 °F - 53.6 °F 100% 30.01 in 3.0 mi SW 8.1 mph - N/A   Overcast
8:53 AM 53.1 °F - 52.0 °F 96% 30.02 in 10.0 mi WSW 10.4 mph - N/A   Overcast
9:40 AM 55.4 °F - 53.6 °F 94% 30.02 in 10.0 mi WSW 10.4 mph - N/A   Mostly Cloudy
9:53 AM 57.9 °F - 53.1 °F 84% 30.02 in 10.0 mi WSW 10.4 mph - N/A   Scattered Clouds
10:53 AM 59.0 °F - 54.0 °F 83% 30.03 in 10.0 mi WSW 9.2 mph - N/A   Clear
11:53 AM 64.0 °F - 54.0 °F 70% 30.01 in 10.0 mi SSW 9.2 mph - N/A   Clear
12:53 PM 71.1 °F - 55.0 °F 57% 30.00 in 10.0 mi West 8.1 mph - N/A   Clear
1:53 PM 75.9 °F - 55.0 °F 48% 29.99 in 10.0 mi West 6.9 mph - N/A   Clear
2:53 PM 78.1 °F - 54.0 °F 43% 29.97 in 10.0 mi Variable 4.6 mph - N/A   Clear
3:53 PM 80.1 °F 80.1 °F 55.0 °F 42% 29.95 in 10.0 mi SW 4.6 mph - N/A   Clear
4:53 PM 81.0 °F 81.0 °F 57.0 °F 44% 29.94 in 10.0 mi SW 6.9 mph - N/A   Clear
5:53 PM 81.0 °F 81.3 °F 59.0 °F 47% 29.94 in 10.0 mi WSW 9.2 mph - N/A   Clear
6:53 PM 75.9 °F - 57.9 °F 54% 29.95 in 10.0 mi SW 12.7 mph - N/A   Clear
7:53 PM 68.0 °F - 55.9 °F 65% 29.97 in 10.0 mi WSW 15.0 mph 23.0 mph N/A   Clear
8:53 PM 60.1 °F - 55.0 °F 83% 29.99 in 10.0 mi WSW 17.3 mph 23.0 mph N/A   Clear
9:53 PM 57.0 °F - 54.0 °F 89% 30.01 in 10.0 mi SW 16.1 mph 21.9 mph N/A   Clear
10:27 PM 57.2 °F - 55.4 °F 94% 30.01 in 10.0 mi WSW 13.8 mph 21.9 mph N/A   Partly Cloudy
10:48 PM 57.2 °F - 55.4 °F 94% 30.01 in 10.0 mi SW 13.8 mph 21.9 mph N/A   Mostly Cloudy
10:53 PM 57.9 °F - 55.0 °F 90% 30.01 in 10.0 mi WSW 13.8 mph 21.9 mph N/A   Mostly Cloudy
11:53 PM 57.0 °F - 54.0 °F 89% 30.01 in 10.0 mi SW 17.3 mph - N/A   Overcast